Tracking 35280 objects as of 6-Sep-2026
HD Live streaming from Space Station
objects crossing your sky now

OPS 0856 DEB

Track OPS 0856 DEB now!
10-day predictions


NORAD ID: 25097
Int'l Code: 1966-077S
Launch date: August 19, 1966
Source: United States (US)
Launch site: AIR FORCE WESTERN TEST RANGE (AFWTR)

Note: This is SATELLITE DEBRIS
Your satellite tracking list
Your tracking list is empty




NASA's NSSDC Master Catalog

Two Line Element Set (TLE):
1 25097U 66077S   26127.98757049 -.00000665  00000-0 -27693-1 0  9993
2 25097  88.2341 133.6972 1992327  68.6249 311.4962  8.93472887345789
Source of the keplerian elements: AFSPC